CAPE
0 0 0 0 0 0 0 0 0 0 0 0 0 0 0 0 0 0 0 0 0 0 0 0 0 0 0 0 0 0 0 0
0 0 0 0 0 0 0 0 0 0 0 0 0 0 0 0 0 0 0 0 0 0 0 0 0 0 0 0 0 0 0 0
0 0 0 0 0 0 0 0 0 0 0 0 0 0 0 0 0 0 0 0 0 0 0 0 0 0 0 0 0 0 0 0
0 0 0 0 0 0 0 0 0 0 0 0 0 0 0 0 0 0 0 0 0 0 0 0 0 0 0 0 0 0 0 0
0 0 0 0 0 0 0 0 0 0 0 0 0 0 0 0 0 0 0 0 0 0 0 0 0 0 0 0 0 0 0 0
0 0 0 0 0 0 0 0 0 0 0 0 0 0 0 0 0 0 0 0 0 0 0 0 0 0 0 0 0 0 0 0
0 0 0 0 0 0 0 0 0 0 0 0 0 0 0 0 0 0 0 0 0 0 0 0 0 0 0 0 0 0 0 0
0 0 0 0 0 0 0 0 0 0 0 0 0 0 0 0 0 0 0 0 0 0 0 0 0 0 0 0 0 0 0 0
0 0 0 0 0 0 0 0 0 0 0 0 0 0 0 0 0 0 0 0 0 0 0 0 0 0 0 0 0 0 0 0
0 0 0 0 0 0 0 0 0 0 0 0 0 0 0 0 0 0 0 0 0 0 0 0 0 0 0 0 0 0 0 0
0 0 0 0 0 0 0 0 0 0 0 0 0 0 0 0 0 0 0 0 0 0 0 0 0 0 0 0 0 0 0 0
0 0 0 0 0 0 0 0 0 0 0 0 0 0 0 0 0 0 0 0 0 0 0 0 0 0 0 0 0 0 0 0
0 0 0 0 0 0 0 0 0 0 0 0 0 0 0 0 0 0 0 0 0 0 0 0 0 0 0 0 0 0 0 0
0 0 0 0 0 0 0 0 0 0 0 0 0 0 0 0 0 0 0 0 0 0 0 0 0 0 0 0 0 0 0 0
0 0 0 0 0 0 0 0 0 0 0 0 0 0 0 0 0 0 0 0 0 0 0 0 0 0 0 0 0 0 0 0
0 0 0 0 0 0 0 0 0 0 0 0 0 0 0 0 0 0 0 0 0 0 0 0 0 0 0 0 0 0 0 0
0 0 0 0 0 0 0 0 0 0 0 0 0 0 0 0 0 0 0 0 0 0 0 0 0 0 0 0 0 0 0 0
0 0 0 0 0 0 0 0 0 0 0 0 0 0 0 0 0 0 0 0 0 0 0 0 0 0 0 0 0 0 0 0
0 0 0 0 0 0 0 0 0 0 0 0 0 0 0 0 0 0 0 0 0 0 0 0 0 0 0 0 0 0 0 0
0 0 0 0 0 0 0 0 0 0 0 0 0 0 0 0 0 0 0 0 0 0 0 0 0 0 0 0 0 0 0 0
CIN
0 0 0 0 0 0 0 0 0 0 0 0 0 0 0 0 0 0 0 0 0 0 0 0 0 0 0 0 0 0 0 0
0 0 0 0 0 0 0 0 0 0 0 0 0 0 0 0 0 0 0 0 0 0 0 0 0 0 0 0 0 0 0 0
0 0 0 0 0 0 0 0 0 0 0 0 0 0 0 0 0 0 0 0 0 0 0 0 0 0 0 0 0 0 0 0
0 0 0 0 0 0 0 0 0 0 0 0 0 0 0 0 0 0 0 0 0 0 0 0 0 0 0 0 0 0 0 0
0 0 0 0 0 0 0 0 0 0 0 0 0 0 0 0 0 0 0 0 0 0 0 0 0 0 0 0 0 0 0 0
0 0 0 0 0 0 0 0 0 0 0 0 0 0 0 0 0 0 0 0 0 0 0 0 0 0 0 0 0 0 0 0
0 0 0 0 0 0 0 0 0 0 0 0 0 0 0 0 0 0 0 0 0 0 0 0 0 0 0 0 0 0 0 0
0 0 0 0 0 0 0 0 0 0 0 0 0 0 0 0 0 0 0 0 0 0 0 0 0 0 0 0 0 0 0 0
0 0 0 0 0 0 0 0 0 0 0 0 0 0 0 0 0 0 0 0 0 0 0 0 0 0 0 0 0 0 0 0
0 0 0 0 0 0 0 0 0 0 0 0 0 0 0 0 0 0 0 0 0 0 0 0 0 0 0 0 0 0 0 0
0 0 0 0 0 0 0 0 0 0 0 0 0 0 0 0 0 0 0 0 0 0 0 0 0 0 0 0 0 0 0 0
0 0 0 0 0 0 0 0 0 0 0 0 0 0 0 0 0 0 0 0 0 0 0 0 0 0 0 0 0 0 0 0
0 0 0 0 0 0 0 0 0 0 0 0 0 0 0 0 0 0 0 0 0 0 0 0 0 0 0 0 0 0 0 0
0 0 0 0 0 0 0 0 0 0 0 0 0 0 0 0 0 0 0 0 0 0 0 0 0 0 0 0 0 0 0 0
0 0 0 0 0 0 0 0 0 0 0 0 0 0 0 0 0 0 0 0 0 0 0 0 0 0 0 0 0 0 0 0
0 0 0 0 0 0 0 0 0 0 0 0 0 0 0 0 0 0 0 0 0 0 0 0 0 0 0 0 0 0 0 0
0 0 0 0 0 0 0 0 0 0 0 0 0 0 0 0 0 0 0 0 0 0 0 0 0 0 0 0 0 0 0 0
0 0 0 0 0 0 0 0 0 0 0 0 0 0 0 0 0 0 0 0 0 0 0 0 0 0 0 0 0 0 0 0
0 0 0 0 0 0 0 0 0 0 0 0 0 0 0 0 0 0 0 0 0 0 0 0 0 0 0 0 0 0 0 0
0 0 0 0 0 0 0 0 0 0 0 0 0 0 0 0 0 0 0 0 0 0 0 0 0 0 0 0 0 0 0 0
Wind_Speed
6 7 12 14 13 13 12 12 12 13 14 14 14 13 12 13 12 10 11 12 12 13 16 19 21 19 19 18 18 20 9 7
7 6 6 6 6 12 12 12 12 12 12 11 11 11 11 10 9 9 10 17 18 18 18 19 20 17 18 17 19 18 8 7
6 7 6 6 6 8 11 14 12 11 11 10 8 5 6 7 7 9 11 14 16 15 15 16 16 18 17 18 16 5 6 5
7 7 7 6 4 5 5 6 3 4 4 5 4 5 4 5 6 9 11 12 12 12 12 12 11 5 5 12 5 5 4 4
7 7 7 6 5 4 2 3 2 3 4 5 4 4 4 3 3 3 4 8 4 6 5 5 7 5 5 5 6 5 4 4
9 7 7 6 3 3 4 3 3 3 4 5 4 2 2 4 3 3 5 3 6 5 4 5 6 6 6 5 5 4 3 3
9 7 7 6 6 3 3 3 3 4 4 5 5 5 5 4 4 4 5 4 5 5 5 5 6 6 5 4 4 5 5 3
8 10 8 7 5 5 5 4 4 4 4 4 7 5 5 5 4 5 5 5 4 5 5 4 4 4 7 5 5 2 4 5
10 7 7 8 7 7 5 5 4 4 4 5 7 6 6 6 5 5 4 4 6 5 5 4 5 5 7 6 4 4 3 5
9 7 6 7 7 6 4 5 4 4 4 4 7 6 7 6 5 5 3 5 5 5 5 5 5 5 4 5 5 6 5 6
10 9 8 7 7 6 6 5 5 4 4 4 5 6 7 6 6 4 4 5 5 5 5 4 4 4 6 6 6 7 6 7
11 8 8 7 5 5 4 3 3 4 4 5 6 5 7 7 5 5 5 5 5 4 5 5 3 3 6 5 5 6 7 7
14 11 9 6 2 5 4 5 3 2 4 6 6 6 6 7 5 5 5 6 5 4 3 6 6 5 4 3 3 6 9 7
14 13 10 6 4 3 4 4 2 3 3 4 5 6 7 7 7 5 6 6 6 6 5 2 4 5 2 2 3 3 4 6
16 15 12 7 7 4 4 4 4 2 1 3 3 6 7 7 7 6 6 5 5 4 5 5 3 3 7 4 2 1 1 3
16 16 13 8 8 7 9 7 7 3 4 3 4 7 7 7 8 8 7 4 6 5 4 4 4 3 2 4 5 2 2 3
16 15 15 13 10 8 7 5 4 4 3 7 6 5 7 9 9 8 7 5 5 6 6 6 4 3 2 2 4 3 4 3
11 15 15 13 12 9 12 10 8 7 6 6 5 4 4 7 8 8 7 6 6 5 6 7 5 4 3 4 2 2 2 3
14 16 17 15 14 11 13 13 13 14 11 8 8 6 4 7 8 7 5 6 6 6 6 6 5 4 3 3 2 2 1 2
16 17 17 16 14 14 13 14 10 10 11 9 8 8 8 8 7 8 7 7 7 6 4 4 6 4 5 5 3 3 2 1
Wind_Direction
117 121 131 128 128 126 122 120 117 114 111 108 106 104 100 95 89 79 57 43 42 47 45 53 67 83 81 78 79 73 62 49
127 121 122 127 135 134 132 131 127 122 118 114 114 111 107 104 96 85 72 66 63 59 59 62 64 90 78 75 73 63 47 47
138 138 140 141 139 152 140 139 141 137 121 110 107 108 103 96 102 82 70 75 73 69 64 64 64 76 85 83 76 60 61 42
154 152 155 158 156 130 134 141 142 150 144 129 119 113 115 96 75 61 52 45 66 65 66 70 78 75 83 85 86 78 65 62
175 163 167 166 149 158 141 142 174 193 161 135 127 100 80 65 48 39 66 68 52 52 43 43 61 81 91 108 113 103 89 71
175 170 169 184 154 168 161 148 151 145 148 146 125 94 74 88 87 85 81 54 60 46 35 39 43 44 51 99 115 111 107 98
179 175 179 182 168 154 172 178 146 142 131 119 115 100 97 112 107 83 64 61 59 63 60 47 55 38 40 92 113 123 119 109
165 189 188 165 169 164 175 165 131 110 121 130 113 124 117 96 86 67 59 64 52 62 72 73 57 46 34 57 69 70 124 113
163 188 176 178 168 162 163 143 131 118 119 112 108 108 109 105 83 73 80 83 72 53 39 44 47 41 48 26 32 87 84 98
170 155 175 158 147 144 138 143 135 125 121 112 110 116 112 93 91 87 77 70 69 53 36 45 27 34 33 13 21 63 58 80
157 147 164 165 142 132 133 149 130 132 119 117 114 122 104 96 100 104 91 78 64 63 42 56 30 13 54 40 42 51 53 75
152 147 161 176 135 124 110 125 131 135 134 125 111 115 110 108 99 100 89 80 68 72 82 46 38 359 53 69 50 60 63 57
160 150 178 161 135 140 138 156 175 143 148 140 122 129 118 112 107 102 92 83 77 54 89 68 25 352 78 9 42 52 62 49
163 166 172 175 154 152 144 147 192 165 157 142 140 121 123 117 126 114 101 95 70 55 61 83 52 7 98 100 11 349 38 37
174 172 176 169 168 128 104 76 73 80 132 124 152 119 112 112 109 109 99 95 95 82 69 75 99 20 39 125 54 279 332 353
182 170 174 170 171 165 162 171 171 183 168 154 137 124 116 114 109 105 104 106 100 95 75 75 85 44 11 42 65 124 123 340
186 172 176 177 176 168 167 157 173 151 136 146 132 130 123 121 119 115 111 106 100 102 83 76 70 83 64 27 50 59 75 107
179 178 186 183 177 172 177 168 166 157 158 155 144 127 115 117 119 118 115 112 110 106 98 95 95 92 84 70 79 89 5 54
179 188 190 189 188 181 181 175 173 173 171 165 151 143 133 137 128 125 121 118 115 111 103 104 100 94 94 84 75 78 129 138
179 193 197 194 188 191 189 178 177 179 174 165 161 159 149 142 135 129 125 121 112 109 108 105 100 98 84 75 81 59 43 69